Location: Peterborough
(44.3091°N, 78.3197°W)
Time: 18:44:39
(UTC-04:00)

Vanguard 3 - Pass Details

Date: 31 March 2023
Orbit: 507 x 3246 km, 33.4° (Epoch: 05 June)

Event Time Altitude Azimuth Distance (km) Brightness Sun altitude
Exits shadow 05:44:00 15° 259° (WSW) 5,602 10.7 -13.5°
Maximum altitude 06:00:57 58° 189° (S) 3,544 10.2 -10.6°
Drops below altitude 10° 06:17:21 10° 117° (ESE) 5,256 12.1 -7.8°
Sets 06:20:54 0° 113° (ESE) 5,971 12.6 -7.1°
